Location: ??? ???????
(44.4383°N, 135.9956°E)
Time: 11:10:48
(UTC+00:00)

Daily predictions for brighter satellites

Satellite Brightness Start Highest point End
(mag) Time Altitude Azimuth Time Altitude Azimuth Time Altitude Azimuth
Cosmos 192 4.1 12:04:56 78° ESE 12:04:56 78° ESE 12:09:49 10° NNE
Cosmos 494 Rocket 4.3 12:00:31 10° NNW 12:05:36 61° WSW 12:06:48 48° SSW
Cosmos 2341 Rocket 4.3 12:02:52 15° SSW 12:08:02 67° W 12:14:19 10° N
Cosmos 1048 Rocket 3.8 12:03:48 10° NNW 12:08:55 72° ENE 12:09:04 71° E
Cosmos 1733 Rocket 3.4 12:13:57 57° NNE 12:13:57 57° NNE 12:17:29 10° N
Lacrosse 5 rocket 2.9 12:11:18 10° W 12:13:39 26° NW 12:13:39 26° NW
Okean-O 3.2 12:13:58 48° WSW 12:14:23 49° W 12:18:40 10° NNW
Cosmos 2237 Rocket 2.5 12:19:02 51° ENE 12:19:02 51° ENE 12:23:34 10° NNE
Cosmos 1980 3.8 12:19:29 60° ENE 12:19:29 60° ENE 12:24:20 10° NNE
Terra 3.9 12:21:13 15° SW 12:23:43 22° W 12:27:22 10° NW
Aureole 3 4.0 12:22:14 10° N 12:25:43 63° NNW 12:25:43 63° NNW
Cosmos 2292 Rocket 4.4 12:25:06 10° N 12:29:49 52° NNE 12:29:49 52° NNE
BREEZE-M DEB (TANK) 4.1 12:32:03 55° ESE 12:32:03 55° ESE 12:46:58 10° NE
USA 238 DEB 4.0 12:26:07 10° NW 12:33:33 72° NE 12:35:08 58° ESE
USA 238 4.0 12:26:17 10° NW 12:33:43 71° NE 12:35:18 58° ESE
Meteor 2-21 Rocket 4.3 12:27:36 10° N 12:33:44 83° E 12:34:00 80° SE
ASTEX 1 3.7 12:34:16 60° W 12:34:16 60° W 12:39:02 10° NNW
Okean O Rocket 3.2 12:37:47 26° WSW 12:38:09 27° W 12:41:51 10° NW
SPOT 3 Rocket 3.8 12:39:26 65° W 12:39:26 65° W 12:44:31 10° NNW
Cosmos 2242 Rocket 4.5 12:35:45 10° NNW 12:39:28 46° WNW 12:39:28 46° WNW
NOSS 0 Rocket 4.3 12:38:52 17° SW 12:43:44 62° WNW 12:49:57 10° NNE
Cosmos 1727 Rocket 4.0 12:37:57 10° N 12:44:18 78° W 12:44:51 72° SW
COSMOS 2428 4.2 12:45:59 10° WSW 12:51:12 35° NW 12:56:27 10° N
Cosmos 2369 Rocket 3.7 12:47:56 10° N 12:52:10 24° NE 12:52:10 24° NE
Cosmos 2278 Rocket 2.9 12:55:28 10° NW 13:00:29 48° W 13:00:29 48° W
Ariane Rocket 4.0 13:06:32 42° WNW 13:06:32 42° WNW 13:10:33 10° NNW
NOSS 3-4 (A) 3.8 13:14:09 52° NNW 13:14:09 52° NNW 13:19:14 10° NNE
NOSS 3-4 (C) 3.8 13:14:41 52° NNW 13:14:41 52° NNW 13:19:46 10° NNE
USA 59 Rocket 2.7 13:14:41 10° NNW 13:15:10 14° NNW 13:15:10 14° NNW
Cosmos 1934 Rocket 4.2 13:21:25 68° NNW 13:21:25 68° NNW 13:26:53 10° N
Cosmos 2123 Rocket 4.2 13:14:54 10° NNW 13:20:25 67° NW 13:20:25 67° NW
SL-16 R/B 3.9 13:29:03 24° NE 13:29:03 24° NE 13:31:17 10° NNE
Cosmos 1943 Rocket 3.9 13:23:00 10° NW 13:26:57 24° W 13:26:57 24° W
SeaSat 1 4.0 13:41:28 31° NW 13:41:28 31° NW 13:44:05 10° NNW
Cosmos 2237 Rocket 4.1 14:00:45 21° WNW 14:02:24 25° NW 14:07:02 10° N
COSMOS 2455 4.5 14:04:50 10° NNW 14:09:46 26° NE 14:09:46 26° NE
Cosmos 2369 Rocket 3.9 14:31:23 10° NNW 14:33:56 27° NW 14:33:56 27° NW
ACS3 Solar Sail 3.7 14:59:47 10° NE 15:02:36 19° ENE 15:02:36 19° ENE
SL-16 R/B 4.0 15:10:51 24° NW 15:10:51 24° NW 15:14:50 10° N
CZ-2C R/B 4.2 15:17:06 33° NNW 15:17:06 33° NNW 15:20:03 10° NNW
USA 281 4.0 15:33:52 43° ENE 15:34:12 43° NE 15:40:21 10° NNW
SJ 16-02 4.3 15:30:35 10° NNW 15:30:52 12° NNW 15:30:52 12° NNW
USA 234 4.0 15:39:44 10° E 15:45:58 49° NNE 15:52:11 10° NW
Cosmos 1833 Rocket 4.3 15:58:07 29° ENE 15:58:07 29° ENE 16:01:14 10° NE
COSMOS 2455 4.4 15:50:18 10° NW 15:52:51 26° NW 15:52:51 26° NW
IDEFIX/ARIANE 42P 4.4 15:51:47 10° NE 15:54:31 24° ENE 15:54:31 24° ENE
CZ-2D R/B 4.1 16:33:46 10° NE 16:37:18 18° E 16:38:06 18° ESE
Cosmos 1697 Rocket 3.3 16:33:33 10° NNW 16:38:15 54° NNE 16:38:15 54° NNE
ACS3 Solar Sail 2.1 16:41:10 10° N 16:46:10 56° NNW 16:46:10 56° NNW
Cosmos 2098 Rocket 4.1 16:50:54 55° N 16:50:54 55° N 16:55:17 10° N
USA 267 3.4 16:46:15 10° NE 16:52:43 63° NNW 16:53:26 59° WNW
Cosmos 1980 Rocket 3.4 16:49:12 10° NNW 16:54:32 39° NE 16:59:49 10° SE
ADEOS Rocket 3.7 16:49:09 10° NNE 16:56:23 64° ESE 16:58:03 52° SSE
CZ-4C R/B 3.9 17:06:21 15° ESE 17:06:21 15° ESE 17:08:45 10° ENE
ATLAS 3B R/B 3.7 16:59:46 10° NNW 17:07:22 50° NE 17:14:31 10° ESE
USA 229 DEB 4.4 17:01:18 10° NNW 17:08:46 63° NE 17:16:57 10° SE
USA 229 4.4 17:01:22 10° NNW 17:08:49 62° NE 17:17:01 10° SE
ATLAS 2AS CENTAUR R/B 2.5 17:10:15 75° WSW 17:10:49 83° NW 17:17:43 10° NE
BREEZE-M DEB (TANK) 3.6 17:13:03 47° WNW 17:14:29 72° N 17:20:18 10° E
Cosmos 2082 Rocket 3.3 17:14:12 32° SE 17:15:16 35° ESE 17:20:23 10° NE
Meteor 2-10 4.1 17:12:20 10° N 17:17:16 76° N 17:17:16 76° N
USA 281 4.1 17:20:43 33° WNW 17:20:43 33° WNW 17:24:51 10° NW
MSX 4.1 17:13:47 10° N 17:19:02 54° NW 17:19:02 54° NW
Envisat 3.5 17:16:25 10° NNE 17:21:23 52° E 17:21:47 51° ESE
Gbstr 26 Del rocket 4.3 17:27:10 32° NNE 17:27:10 32° NNE 17:29:43 10° NE
USA 234 3.1 17:22:20 10° SE 17:28:49 65° SW 17:35:21 10° NW
H-2A R/B 3.1 17:27:33 10° NNE 17:32:15 39° E 17:33:55 30° SE
ADEOS II 3.0 17:29:18 10° NNE 17:34:16 41° E 17:36:06 31° SE
CZ-3 R/B 4.4 17:28:35 30° SSW 17:35:16 35° S 17:45:17 10° ESE
IDEFIX/ARIANE 42P 3.5 17:31:07 10° N 17:35:13 35° NW 17:35:13 35° NW
H-2A R/B 3.2 17:38:27 43° NNE 17:38:27 43° NNE 17:41:07 10° N
Resurs 1-4 Rocket 2.3 17:32:40 10° NNE 17:37:59 68° ESE 17:38:59 55° SSE
SL-16 R/B 4.4 17:33:38 10° ESE 17:38:51 29° ENE 17:44:06 10° N
SL-8 R/B 4.3 17:38:10 46° NNW 17:38:58 52° N 17:43:36 10° E
Cosmos 2279 Rocket 4.2 17:37:25 40° SSE 17:39:43 68° E 17:45:54 10° NNE
Cosmos 1833 Rocket 3.6 17:39:47 34° WNW 17:40:01 35° NW 17:45:07 10° N
Cosmos 2034 Rocket 4.4 17:44:08 45° W 17:44:31 45° WNW 17:50:36 10° N
Cosmos-2242 3.1 17:45:09 72° NNE 17:45:09 72° NNE 17:48:58 10° N
Cosmos 1452 Rocket 4.1 17:46:51 42° WNW 17:46:51 42° WNW 17:51:47 10° N
SL-4 R/B 2.9 17:48:54 39° N 17:48:54 39° N 17:52:19 10° NE
Cosmos 2058 Rocket 2.9 17:51:03 88° SSW 17:51:07 90° NW 17:55:35 10° N
H-2A R/B 4.4 17:49:13 10° NE 17:52:04 18° E 17:54:51 10° SE
NOAA 11 4.2 17:47:28 10° N 17:52:47 58° WNW 17:53:21 54° W
FENGYUN 3A 4.4 17:51:55 10° N 17:56:47 35° WNW 17:57:01 34° WNW
Cosmos 2221 3.9 17:55:45 21° SE 17:57:47 33° E 18:01:32 10° NNE
ALOS 2.1 17:53:38 10° NNE 17:58:13 90° ESE 17:58:49 67° SSW
COSMOS 2406 4.3 17:57:36 20° SSE 18:01:01 39° ESE 18:06:20 10° NE
Cosmos 2266 Rocket 4.3 18:06:21 10° N 18:12:32 65° E 18:18:33 10° SSE
Cosmos 1092 Rocket 4.4 18:07:54 10° NNW 18:13:33 39° W 18:14:28 37° WSW
SL-24 R/B 4.4 18:09:27 10° N 18:14:29 75° W 18:16:47 35° SSW
Cosmos 909 Rocket 4.0 18:13:03 37° SW 18:15:45 79° WNW 18:22:05 10° NNE
Meteor 2-2 Rocket 4.3 18:15:09 41° SW 18:16:59 61° WNW 18:22:35 10° N
CZ-2D R/B 2.1 18:12:32 10° N 18:17:40 61° WNW 18:19:21 41° SW
KORONAS-FOTON 3.5 18:21:42 60° NW 18:21:42 60° NW 18:24:43 10° N
Cosmos 1697 Rocket 4.5 18:18:32 10° NW 18:19:55 15° WNW 18:19:55 15° WNW
Cosmos 1707 3.8 18:25:17 23° NNW 18:25:17 23° NNW 18:26:43 10° N
Cosmos 2369 3.6 18:19:56 10° NNW 18:25:38 83° WSW 18:31:20 10° SSE
Cosmos 2333 Rocket 3.6 18:21:38 10° NNW 18:26:57 39° NE 18:32:14 10° SE
Cosmos 1607 4.3 18:23:53 22° S 18:27:52 59° ESE 18:33:57 10° NE
ACS3 Solar Sail 3.8 18:26:38 10° NW 18:28:22 11° NW 18:29:44 11° WNW
Cosmos 1536 3.0 18:24:58 10° NNW 18:28:06 43° WNW 18:28:06 43° WNW
Cosmos 1812 Rocket 3.9 18:27:29 17° S 18:30:38 62° E 18:34:53 10° NNE
Cosmos 1766 4.5 18:28:39 10° NNW 18:30:03 21° NW 18:30:03 21° NW
BREEZE-M DEB (TANK) 4.0 18:30:22 21° W 18:33:06 36° NNW 18:35:38 10° NE
Cosmos 1470 2.4 18:29:45 10° N 18:33:07 77° E 18:35:25 19° SSE
Cosmos 1867 4.4 18:35:28 26° W 18:37:44 37° NW 18:42:49 10° NNE
Cosmos 1980 Rocket 2.7 18:33:19 10° NW 18:38:26 35° WSW 18:41:23 21° SSW
BREEZE-M DEB (TANK) 3.9 18:27:00 10° WNW 18:39:56 60° N 18:43:38 10° E
ARGOS 3.3 18:34:42 10° NNE 18:40:08 74° ESE 18:45:30 10° S
ADEOS Rocket 4.4 18:35:19 10° N 18:41:23 31° WNW 18:44:59 21° WSW
ARIANE 6 FM1 Upper Stage 2.5 18:38:50 10° NW 18:42:42 53° SW 18:46:34 10° SSE
Lacrosse 5 rocket 3.3 18:46:25 10° S 18:46:25 10° S 18:46:28 10° S
Cosmos 546 4.4 18:42:38 22° WNW 18:44:55 81° SSW 18:48:38 10° ESE
CZ-4C R/B 1.8 18:51:15 27° WSW 18:53:25 59° NW 18:58:37 10° NNE
USA 276 1.9 18:54:45 41° ENE 18:54:45 41° ENE 18:56:06 10° ENE
Iridium 4 Rocket 3.2 18:52:59 19° SSW 18:55:54 54° W 19:00:20 10° N
CRYOSAT 2 4.3 18:51:03 10° S 18:55:56 85° W 19:00:51 10° N
CZ-2C R/B 3.3 18:51:58 10° NNE 18:56:50 49° E 19:01:31 10° S
ATLAS 3B R/B 3.1 18:50:53 10° NW 18:58:07 45° WSW 19:04:54 10° S
Cosmos 2082 Rocket 2.9 18:56:01 21° WSW 18:59:14 39° NW 19:04:37 10° NNE
Cosmos 220 Rocket 3.9 18:56:08 15° SSW 18:59:28 79° ESE 19:03:29 10° NNE
USA 229 4.5 18:52:38 10° NW 18:59:36 37° WSW 19:07:03 10° S
Envisat 4.4 18:56:08 10° NNW 18:59:56 22° WNW 19:01:55 17° W
Cosmos 2278 4.2 18:55:56 10° NNW 19:01:38 66° ENE 19:07:17 10° SE
ATLAS 2AS CENTAUR R/B 4.1 18:57:39 12° W 19:02:42 26° NNW 19:08:16 10° NNE
Cosmos 2360 Rocket 3.4 19:00:40 10° NNW 19:06:08 47° ENE 19:11:35 10° SE
Meteor 2-9 Rocket 4.2 19:01:48 10° NNW 19:07:00 52° W 19:12:08 10° S
Cosmos 540 Rocket 4.0 19:05:41 10° S 19:10:41 60° ESE 19:15:46 10° NNE
H-2A R/B 3.0 19:07:11 10° N 19:11:23 28° WNW 19:14:26 16° WSW
USA 234 4.5 19:08:45 10° SSW 19:12:38 16° WSW 19:16:34 10° W
Gbstr 26 Del rocket 4.4 19:09:56 10° NW 19:13:09 27° N 19:16:28 10° ENE
ADEOS II 3.1 19:09:13 10° N 19:13:37 28° WNW 19:16:56 15° WSW
Cosmos 2322 Rocket 2.9 19:08:32 10° NNW 19:14:06 58° ENE 19:19:39 10° SE
Meteor 1-28 Rocket 3.4 19:11:52 10° SSE 19:15:05 60° ENE 19:18:20 10° N
BREEZE-M DEB (TANK) 4.2 19:12:18 10° WNW 19:15:27 55° NNE 19:25:26 10° E
Cosmos 1939 Rocket 4.2 19:12:29 10° NNE 19:15:52 37° E 19:19:14 10° SSE
Resurs 1-4 Rocket 3.7 19:13:36 10° NNW 19:17:11 19° WNW 19:20:02 13° W
Cosmos 2084 4.4 19:16:20 16° W 19:19:05 33° NW 19:22:52 10° NNE
PAYLOAD A 4.3 19:14:44 10° NNE 19:19:35 65° ESE 19:24:15 10° S
Cosmos 1655 Rocket 4.0 19:13:31 10° N 19:19:48 78° W 19:25:59 10° S
Meteor 2-4 Rocket 4.0 19:15:45 10° S 19:21:12 69° E 19:26:33 10° NNE
SL-8 R/B 3.6 19:16:47 10° WNW 19:21:32 86° SSW 19:26:16 10° ESE
SL-16 R/B 2.7 19:16:01 10° S 19:22:05 54° W 19:28:13 10° NNW
SL-16 R/B 2.1 19:16:27 10° NNW 19:22:07 72° WSW 19:27:45 10° SSE
Cosmos 1503 Rocket 4.0 19:17:28 10° NNW 19:22:47 83° WSW 19:28:00 10° SSE
SL-4 R/B 3.6 19:23:26 10° WNW 19:26:46 27° N 19:30:00 10° ENE
H-2A R/B 2.5 19:23:40 10° N 19:27:30 39° WNW 19:31:15 10° SW
SL-08 RB Rocket 3.7 19:25:49 10° N 19:30:07 56° WNW 19:34:25 10° SSW
Cosmos 1271 Rocket 3.6 19:29:12 12° SW 19:31:45 25° WNW 19:34:42 10° NNW
Cosmos 1975 3.8 19:29:10 10° NW 19:32:01 22° W 19:34:51 10° SW
Meteor 1-11 Rocket 4.0 19:26:59 10° NNW 19:32:43 50° W 19:38:19 10° SSW
ALOS 4.3 19:32:57 10° NW 19:34:25 11° WNW 19:35:52 10° WNW
Cosmos 2221 3.8 19:32:03 11° WSW 19:34:53 20° WNW 19:38:01 10° NNW
Cosmos 1486 Rocket 4.4 19:34:16 10° NW 19:39:04 39° WSW 19:43:53 10° S
Cosmos 1766 Rocket 3.5 19:35:19 10° NNW 19:39:41 69° W 19:43:59 10° S
Cosmos 2219 Rocket 3.1 19:37:04 10° NNW 19:42:36 55° ENE 19:48:08 10° SE
BREEZE-M DEB (TANK) 3.7 19:39:33 10° WNW 19:43:33 87° SSW 19:57:45 10° ESE
Cosmos 990 Rocket 3.9 19:39:14 10° NNW 19:44:22 79° WSW 19:49:29 10° SSE
COSMOS 2406 4.0 19:40:06 10° WSW 19:45:20 35° NW 19:50:36 10° N
Cosmos 44 Rocket 4.0 19:42:19 10° WSW 19:47:04 41° NW 19:51:57 10° NNE
Cosmos 1066 Rocket 4.3 19:44:07 10° S 19:49:35 83° E 19:54:59 10° NNE
SJ-11-01 4.3 19:44:57 10° NNE 19:49:39 84° WNW 19:54:17 10° SSW
Cosmos 1763 Rocket 3.7 19:47:11 10° SW 19:52:16 54° WNW 19:57:27 10° NNE
BREEZE-M DEB (TANK) 4.1 19:47:50 10° WSW 20:06:34 73° NNW 20:10:36 10° ENE
